| time (UTC) | temp F | wind direction | speed MPH | gust MPH | rain 1hr in | rain 24hr in | rain mn in | humidity % | barometer mb |
| 20260510234117 | 61 | 263 | 2.0 | 9.0 | 0.00 | 0.00 | 0.00 | 56 | 1016.1 |
| 20260510233630 | 62 | 266 | 4.0 | 9.0 | 0.00 | 0.00 | 0.00 | 55 | 1015.9 |
| 20260510233116 | 62 | 305 | 4.0 | 9.0 | 0.00 | 0.00 | 0.00 | 56 | 1015.9 |
| 20260510232632 | 62 | 310 | 3.0 | 7.0 | 0.00 | 0.00 | 0.00 | 58 | 1015.9 |
| 20260510232125 | 62 | 282 | 0.0 | 4.0 | 0.00 | 0.00 | 0.00 | 58 | 1015.7 |
| 20260510231619 | 62 | 284 | 0.0 | 9.0 | 0.00 | 0.00 | 0.00 | 56 | 1015.7 |
| 20260510231135 | 63 | 258 | 3.0 | 9.0 | 0.00 | 0.00 | 0.00 | 55 | 1015.6 |
| 20260510230641 | 63 | 273 | 1.0 | 8.0 | 0.00 | 0.00 | 0.00 | 54 | 1015.5 |
| 20260510230135 | 63 | 264 | 3.0 | 10.0 | 0.00 | 0.00 | 0.00 | 54 | 1015.4 |
| 20260510225641 | 63 | 267 | 6.0 | 11.0 | 0.00 | 0.00 | 0.00 | 54 | 1015.4 |
| 20260510225154 | 64 | 268 | 7.0 | 11.0 | 0.00 | 0.00 | 0.00 | 55 | 1015.5 |
| 20260510224618 | 63 | 288 | 1.0 | 9.0 | 0.00 | 0.00 | 0.00 | 55 | 1015.4 |
| 20260510224135 | 63 | 305 | 5.0 | 10.0 | 0.00 | 0.00 | 0.00 | 53 | 1015.2 |
| 20260510223621 | 63 | 313 | 6.0 | 14.0 | 0.00 | 0.00 | 0.00 | 54 | 1015.1 |
| 20260510223135 | 63 | 299 | 5.0 | 14.0 | 0.00 | 0.00 | 0.00 | 53 | 1015.1 |
| 20260510222643 | 63 | 237 | 8.0 | 15.0 | 0.00 | 0.00 | 0.00 | 53 | 1015.2 |
| 20260510222136 | 64 | 303 | 10.0 | 15.0 | 0.00 | 0.00 | 0.00 | 51 | 1015.3 |
| 20260510221623 | 64 | 301 | 6.0 | 14.0 | 0.00 | 0.00 | 0.00 | 52 | 1015.2 |
| 20260510221119 | 64 | 292 | 7.0 | 14.0 | 0.00 | 0.00 | 0.00 | 51 | 1015.3 |
| 20260510220649 | 64 | 273 | 6.0 | 11.0 | 0.00 | 0.00 | 0.00 | 50 | 1015.2 |
| 20260510220122 | 64 | 243 | 3.0 | 8.0 | 0.00 | 0.00 | 0.00 | 50 | 1015.1 |
| 20260510215618 | 65 | 301 | 3.0 | 8.0 | 0.00 | 0.00 | 0.00 | 52 | 1015.1 |
| 20260510215132 | 64 | 211 | 1.0 | 7.0 | 0.00 | 0.00 | 0.00 | 53 | 1015.1 |
| 20260510214644 | 64 | 234 | 0.0 | 10.0 | 0.00 | 0.00 | 0.00 | 52 | 1015.0 |
| 20260510214117 | 63 | 311 | 3.0 | 10.0 | 0.00 | 0.00 | 0.00 | 53 | 1015.0 |
| 20260510213631 | 63 | 286 | 2.0 | 11.0 | 0.00 | 0.00 | 0.00 | 52 | 1015.0 |
| 20260510213138 | 63 | 276 | 6.0 | 11.0 | 0.00 | 0.00 | 0.00 | 52 | 1015.0 |
| 20260510212632 | 63 | 302 | 7.0 | 11.0 | 0.00 | 0.00 | 0.00 | 54 | 1015.0 |
| 20260510212118 | 62 | 305 | 2.0 | 14.0 | 0.00 | 0.00 | 0.00 | 57 | 1014.8 |
| 20260510211633 | 62 | 284 | 8.0 | 14.0 | 0.00 | 0.00 | 0.00 | 57 | 1014.8 |
| 20260510211122 | 61 | 293 | 5.0 | 9.0 | 0.00 | 0.00 | 0.00 | 58 | 1014.8 |
| 20260510210638 | 61 | 326 | 2.0 | 10.0 | 0.00 | 0.00 | 0.00 | 60 | 1014.7 |
| 20260510210124 | 61 | 280 | 6.0 | 9.0 | 0.00 | 0.00 | 0.00 | 61 | 1014.7 |
| 20260510205635 | 61 | 316 | 3.0 | 8.0 | 0.00 | 0.00 | 0.00 | 64 | 1014.8 |
| 20260510205121 | 61 | 320 | 4.0 | 9.0 | 0.00 | 0.00 | 0.00 | 64 | 1014.8 |
| 20260510204616 | 61 | 303 | 3.0 | 10.0 | 0.00 | 0.00 | 0.00 | 66 | 1014.9 |
| 20260510204132 | 60 | 277 | 2.0 | 10.0 | 0.00 | 0.00 | 0.00 | 67 | 1015.0 |
| 20260510203618 | 60 | 284 | 2.0 | 7.0 | 0.00 | 0.00 | 0.00 | 67 | 1015.0 |
| 20260510203133 | 60 | 265 | 2.0 | 8.0 | 0.00 | 0.00 | 0.00 | 69 | 1015.0 |
| 20260510202620 | 60 | 295 | 3.0 | 8.0 | 0.00 | 0.00 | 0.00 | 68 | 1015.0 |
| 20260510202149 | 60 | 295 | 2.0 | 5.0 | 0.00 | 0.00 | 0.00 | 71 | 1015.0 |
| 20260510201622 | 60 | 291 | 1.0 | 5.0 | 0.00 | 0.00 | 0.00 | 71 | 1014.9 |
| 20260510201118 | 60 | 299 | 1.0 | 5.0 | 0.00 | 0.00 | 0.00 | 71 | 1014.9 |
| 20260510200632 | 60 | 293 | 1.0 | 8.0 | 0.00 | 0.01 | 0.00 | 72 | 1014.9 |
| 20260510200147 | 60 | 322 | 2.0 | 10.0 | 0.00 | 0.01 | 0.00 | 72 | 1014.9 |
| 20260510195620 | 60 | 320 | 7.0 | 10.0 | 0.00 | 0.01 | 0.00 | 72 | 1015.0 |
| 20260510195133 | 60 | 274 | 1.0 | 6.0 | 0.00 | 0.01 | 0.00 | 73 | 1015.1 |
| 20260510194618 | 60 | 279 | 2.0 | 6.0 | 0.00 | 0.01 | 0.00 | 73 | 1015.0 |
| 20260510194134 | 60 | 341 | 1.0 | 5.0 | 0.00 | 0.01 | 0.00 | 74 | 1014.9 |
| 20260510193621 | 60 | 351 | 0.0 | 5.0 | 0.00 | 0.01 | 0.00 | 74 | 1014.8 |
| 20260510193155 | 60 | 338 | 1.0 | 10.0 | 0.00 | 0.01 | 0.00 | 74 | 1014.8 |
| 20260510192623 | 60 | 302 | 4.0 | 10.0 | 0.00 | 0.01 | 0.00 | 73 | 1014.8 |
| 20260510192138 | 61 | 333 | 2.0 | 5.0 | 0.00 | 0.01 | 0.00 | 73 | 1014.8 |
| 20260510191631 | 61 | 328 | 0.0 | 8.0 | 0.00 | 0.01 | 0.00 | 72 | 1014.8 |
| 20260510191119 | 61 | 328 | 2.0 | 10.0 | 0.00 | 0.01 | 0.00 | 71 | 1014.8 |
| 20260510190632 | 61 | 310 | 3.0 | 13.0 | 0.00 | 0.01 | 0.00 | 72 | 1014.8 |
| 20260510190119 | 61 | 303 | 9.0 | 13.0 | 0.00 | 0.01 | 0.00 | 70 | 1014.7 |
| 20260510185633 | 62 | 311 | 7.0 | 12.0 | 0.00 | 0.01 | 0.00 | 70 | 1014.6 |
| 20260510185120 | 62 | 312 | 9.0 | 12.0 | 0.00 | 0.01 | 0.00 | 69 | 1014.5 |
| 20260510184635 | 63 | 301 | 5.0 | 12.0 | 0.00 | 0.01 | 0.00 | 69 | 1014.5 |
| 20260510184121 | 63 | 321 | 4.0 | 11.0 | 0.00 | 0.01 | 0.00 | 68 | 1014.3 |
| 20260510183635 | 64 | 312 | 6.0 | 11.0 | 0.00 | 0.01 | 0.00 | 66 | 1014.3 |
| 20260510183124 | 64 | 312 | 3.0 | 8.0 | 0.00 | 0.01 | 0.00 | 66 | 1014.3 |
| 20260510182619 | 64 | 301 | 2.0 | 9.0 | 0.00 | 0.01 | 0.00 | 67 | 1014.3 |
| 20260510182113 | 64 | 214 | 3.0 | 9.0 | 0.00 | 0.01 | 0.00 | 66 | 1014.2 |
| 20260510181628 | 64 | 290 | 5.0 | 9.0 | 0.00 | 0.01 | 0.00 | 68 | 1014.2 |
| 20260510181143 | 64 | 276 | 4.0 | 8.0 | 0.00 | 0.01 | 0.00 | 69 | 1014.1 |
| 20260510180635 | 64 | 278 | 2.0 | 9.0 | 0.00 | 0.01 | 0.00 | 69 | 1014.2 |
| 20260510180123 | 63 | 240 | 2.0 | 8.0 | 0.00 | 0.01 | 0.00 | 71 | 1014.1 |
| 20260510175637 | 63 | 293 | 5.0 | 9.0 | 0.00 | 0.01 | 0.00 | 69 | 1014.2 |
| 20260510175123 | 63 | 228 | 5.0 | 9.0 | 0.00 | 0.01 | 0.00 | 70 | 1014.2 |
| 20260510174637 | 63 | 273 | 1.0 | 5.0 | 0.00 | 0.01 | 0.00 | 70 | 1014.3 |
| 20260510174144 | 63 | 268 | 1.0 | 10.0 | 0.00 | 0.01 | 0.00 | 70 | 1014.3 |
| 20260510173616 | 63 | 257 | 3.0 | 10.0 | 0.00 | 0.01 | 0.00 | 71 | 1014.2 |
| 20260510173152 | 63 | 307 | 1.0 | 8.0 | 0.00 | 0.01 | 0.00 | 73 | 1014.3 |
| 20260510172621 | 62 | 271 | 2.0 | 8.0 | 0.00 | 0.01 | 0.00 | 74 | 1014.4 |
| 20260510172133 | 62 | 276 | 1.0 | 9.0 | 0.00 | 0.01 | 0.00 | 74 | 1014.4 |
| 20260510171620 | 62 | 290 | 3.0 | 9.0 | 0.00 | 0.01 | 0.00 | 74 | 1014.4 |
| 20260510171134 | 62 | 235 | 2.0 | 10.0 | 0.00 | 0.01 | 0.00 | 75 | 1014.4 |
| 20260510170621 | 62 | 232 | 3.0 | 10.0 | 0.00 | 0.01 | 0.00 | 75 | 1014.4 |
| 20260510170114 | 62 | 280 | 6.0 | 9.0 | 0.00 | 0.01 | 0.00 | 74 | 1014.3 |
| 20260510165630 | 62 | 320 | 0.0 | 9.0 | 0.00 | 0.01 | 0.00 | 75 | 1014.3 |
| 20260510165138 | 62 | 281 | 2.0 | 8.0 | 0.00 | 0.01 | 0.00 | 75 | 1014.3 |
| 20260510164624 | 62 | 264 | 2.0 | 13.0 | 0.00 | 0.01 | 0.00 | 74 | 1014.4 |
| 20260510164155 | 63 | 301 | 7.0 | 13.0 | 0.00 | 0.01 | 0.00 | 73 | 1014.4 |
| 20260510163627 | 63 | 272 | 5.0 | 11.0 | 0.00 | 0.01 | 0.00 | 72 | 1014.3 |
| 20260510163121 | 63 | 270 | 2.0 | 6.0 | 0.00 | 0.01 | 0.00 | 73 | 1014.2 |
| 20260510162616 | 62 | 248 | 2.0 | 5.0 | 0.00 | 0.01 | 0.00 | 72 | 1014.1 |
| 20260510162129 | 62 | 260 | 0.0 | 6.0 | 0.00 | 0.01 | 0.00 | 73 | 1014.2 |
| 20260510161636 | 62 | 262 | 1.0 | 10.0 | 0.00 | 0.01 | 0.00 | 73 | 1014.3 |
| 20260510161125 | 62 | 230 | 4.0 | 10.0 | 0.00 | 0.01 | 0.00 | 73 | 1014.4 |
| 20260510160618 | 63 | 274 | 2.0 | 10.0 | 0.00 | 0.01 | 0.00 | 73 | 1014.4 |
| 20260510160132 | 63 | 272 | 4.0 | 10.0 | 0.00 | 0.01 | 0.00 | 73 | 1014.4 |
| 20260510155640 | 63 | 295 | 5.0 | 10.0 | 0.00 | 0.01 | 0.00 | 72 | 1014.2 |
| 20260510155132 | 63 | 295 | 4.0 | 9.0 | 0.00 | 0.01 | 0.00 | 71 | 1014.1 |
| 20260510154639 | 64 | 243 | 3.0 | 10.0 | 0.00 | 0.01 | 0.00 | 71 | 1014.0 |
| 20260510154134 | 64 | 247 | 4.0 | 10.0 | 0.00 | 0.01 | 0.00 | 70 | 1014.0 |
| 20260510153620 | 64 | 276 | 4.0 | 8.0 | 0.00 | 0.01 | 0.00 | 71 | 1013.9 |
| 20260510153135 | 64 | 249 | 3.0 | 8.0 | 0.00 | 0.01 | 0.00 | 71 | 1013.7 |
| 20260510152649 | 64 | 281 | 1.0 | 8.0 | 0.00 | 0.01 | 0.00 | 71 | 1013.7 |
| 20260510152157 | 64 | 215 | 3.0 | 9.0 | 0.00 | 0.01 | 0.00 | 70 | 1013.8 |
| 20260510151623 | 64 | 222 | 5.0 | 9.0 | 0.00 | 0.01 | 0.00 | 72 | 1013.8 |
| 20260510151117 | 64 | 245 | 4.0 | 11.0 | 0.00 | 0.01 | 0.00 | 72 | 1013.9 |
| 20260510150630 | 64 | 291 | 7.0 | 11.0 | 0.00 | 0.01 | 0.00 | 71 | 1013.7 |
| 20260510150117 | 64 | 226 | 7.0 | 11.0 | 0.00 | 0.01 | 0.00 | 73 | 1013.7 |
| 20260510145632 | 64 | 257 | 5.0 | 9.0 | 0.00 | 0.01 | 0.00 | 74 | 1013.6 |
| 20260510145140 | 64 | 212 | 3.0 | 11.0 | 0.00 | 0.01 | 0.00 | 73 | 1013.5 |
| 20260510144633 | 63 | 279 | 6.0 | 11.0 | 0.00 | 0.01 | 0.00 | 75 | 1013.6 |
| 20260510144121 | 63 | 245 | 2.0 | 8.0 | 0.00 | 0.01 | 0.00 | 77 | 1013.6 |
| 20260510143634 | 63 | 230 | 4.0 | 6.0 | 0.00 | 0.01 | 0.00 | 77 | 1013.6 |
| 20260510143121 | 63 | 210 | 1.0 | 5.0 | 0.00 | 0.01 | 0.00 | 78 | 1013.6 |
| 20260510142636 | 63 | 201 | 1.0 | 7.0 | 0.00 | 0.01 | 0.00 | 78 | 1013.5 |
| 20260510142121 | 64 | 176 | 4.0 | 9.0 | 0.00 | 0.01 | 0.00 | 77 | 1013.4 |
| 20260510141615 | 64 | 151 | 4.0 | 9.0 | 0.00 | 0.01 | 0.00 | 77 | 1013.3 |
| 20260510141132 | 64 | 152 | 5.0 | 10.0 | 0.00 | 0.01 | 0.00 | 78 | 1013.2 |
| 20260510140618 | 64 | 172 | 5.0 | 10.0 | 0.00 | 0.01 | 0.00 | 80 | 1013.1 |
| 20260510140152 | 63 | 160 | 3.0 | 7.0 | 0.00 | 0.01 | 0.00 | 80 | 1013.0 |
| 20260510135639 | 63 | 188 | 3.0 | 9.0 | 0.00 | 0.01 | 0.00 | 79 | 1012.9 |
| 20260510135125 | 63 | 195 | 5.0 | 8.0 | 0.00 | 0.01 | 0.00 | 80 | 1012.9 |
| 20260510134659 | 62 | 203 | 2.0 | 7.0 | 0.00 | 0.01 | 0.00 | 80 | 1012.8 |
| 20260510134142 | 62 | 210 | 3.0 | 7.0 | 0.00 | 0.01 | 0.00 | 81 | 1012.8 |
| 20260510133634 | 61 | 185 | 3.0 | 5.0 | 0.00 | 0.01 | 0.00 | 82 | 1012.7 |
| 20260510133120 | 61 | 209 | 2.0 | 5.0 | 0.00 | 0.01 | 0.00 | 82 | 1012.8 |
| 20260510132656 | 61 | 190 | 1.0 | 7.0 | 0.00 | 0.01 | 0.00 | 82 | 1012.7 |
| 20260510132122 | 61 | 188 | 3.0 | 8.0 | 0.00 | 0.01 | 0.00 | 82 | 1012.6 |
| 20260510131633 | 61 | 196 | 6.0 | 8.0 | 0.00 | 0.01 | 0.00 | 82 | 1012.7 |
| 20260510131140 | 60 | 168 | 2.0 | 8.0 | 0.00 | 0.01 | 0.00 | 83 | 1012.6 |
| 20260510130633 | 60 | 204 | 2.0 | 8.0 | 0.00 | 0.01 | 0.00 | 83 | 1012.6 |
| 20260510130120 | 59 | 216 | 5.0 | 8.0 | 0.00 | 0.01 | 0.00 | 84 | 1012.7 |
| 20260510125636 | 59 | 219 | 2.0 | 7.0 | 0.00 | 0.01 | 0.00 | 84 | 1012.4 |
| 20260510125121 | 59 | 205 | 4.0 | 7.0 | 0.00 | 0.01 | 0.00 | 85 | 1012.4 |
| 20260510124634 | 58 | 203 | 4.0 | 8.0 | 0.00 | 0.01 | 0.00 | 86 | 1012.6 |
| 20260510124122 | 58 | 205 | 5.0 | 10.0 | 0.00 | 0.01 | 0.00 | 86 | 1012.6 |
| 20260510123636 | 57 | 183 | 4.0 | 8.0 | 0.00 | 0.01 | 0.00 | 86 | 1012.7 |
| 20260510123124 | 57 | 180 | 1.0 | 7.0 | 0.00 | 0.01 | 0.00 | 86 | 1012.6 |
| 20260510122620 | 56 | 178 | 4.0 | 8.0 | 0.00 | 0.01 | 0.00 | 86 | 1012.6 |
| 20260510122135 | 56 | 179 | 2.0 | 5.0 | 0.00 | 0.01 | 0.00 | 86 | 1012.5 |
| 20260510121620 | 55 | 166 | 3.0 | 5.0 | 0.00 | 0.01 | 0.00 | 86 | 1012.4 |
| 20260510121137 | 55 | 201 | 1.0 | 4.0 | 0.00 | 0.01 | 0.00 | 86 | 1012.4 |
| 20260510120621 | 54 | 205 | 1.0 | 3.0 | 0.00 | 0.01 | 0.00 | 87 | 1012.4 |
| 20260510120114 | 54 | 209 | 0.0 | 0.0 | 0.00 | 0.01 | 0.00 | 87 | 1012.4 |
| 20260510115645 | 53 | 210 | 0.0 | 0.0 | 0.00 | 0.01 | 0.00 | 86 | 1012.3 |
| 20260510115117 | 53 | 210 | 0.0 | 1.0 | 0.00 | 0.01 | 0.00 | 87 | 1012.2 |
| 20260510114652 | 53 | 209 | 0.0 | 2.0 | 0.00 | 0.01 | 0.00 | 87 | 1012.1 |
| 20260510114127 | 52 | 209 | 0.0 | 4.0 | 0.00 | 0.01 | 0.00 | 87 | 1012.0 |
| 20260510113641 | 52 | 212 | 0.0 | 2.0 | 0.00 | 0.01 | 0.00 | 87 | 1012.1 |
| 20260510113134 | 51 | 212 | 0.0 | 4.0 | 0.00 | 0.01 | 0.00 | 87 | 1012.2 |
| 20260510112622 | 51 | 212 | 2.0 | 4.0 | 0.00 | 0.01 | 0.00 | 87 | 1012.2 |
| 20260510112136 | 51 | 215 | 0.0 | 0.0 | 0.00 | 0.01 | 0.00 | 87 | 1012.2 |
| 20260510111622 | 50 | 215 | 0.0 | 0.0 | 0.00 | 0.01 | 0.00 | 87 | 1012.0 |
| 20260510111139 | 50 | 216 | 0.0 | 0.0 | 0.00 | 0.01 | 0.00 | 87 | 1012.0 |
| 20260510110632 | 49 | 216 | 0.0 | 0.0 | 0.00 | 0.01 | 0.00 | 87 | 1011.8 |
| 20260510110140 | 49 | 216 | 0.0 | 0.0 | 0.00 | 0.01 | 0.00 | 87 | 1011.8 |
| 20260510105633 | 49 | 216 | 0.0 | 3.0 | 0.00 | 0.01 | 0.00 | 87 | 1011.8 |
| 20260510105121 | 48 | 215 | 1.0 | 3.0 | 0.00 | 0.01 | 0.00 | 87 | 1011.7 |
| 20260510104656 | 48 | 220 | 1.0 | 3.0 | 0.00 | 0.01 | 0.00 | 87 | 1011.7 |
| 20260510104124 | 48 | 222 | 0.0 | 1.0 | 0.00 | 0.01 | 0.00 | 87 | 1011.6 |
| 20260510103615 | 48 | 222 | 0.0 | 5.0 | 0.00 | 0.01 | 0.00 | 87 | 1011.4 |
| 20260510103130 | 48 | 222 | 2.0 | 5.0 | 0.00 | 0.01 | 0.00 | 87 | 1011.3 |
| 20260510102618 | 48 | 203 | 2.0 | 5.0 | 0.00 | 0.01 | 0.00 | 87 | 1011.0 |
| 20260510102127 | 48 | 201 | 1.0 | 5.0 | 0.00 | 0.01 | 0.00 | 87 | 1010.9 |
| 20260510101640 | 48 | 210 | 3.0 | 5.0 | 0.00 | 0.01 | 0.00 | 87 | 1011.0 |
| 20260510101127 | 48 | 208 | 2.0 | 4.0 | 0.00 | 0.01 | 0.00 | 87 | 1011.0 |
| 20260510100621 | 48 | 210 | 1.0 | 3.0 | 0.00 | 0.01 | 0.00 | 87 | 1011.0 |
| 20260510100135 | 48 | 210 | 0.0 | 4.0 | 0.00 | 0.01 | 0.00 | 87 | 1010.9 |
| 20260510095623 | 48 | 211 | 2.0 | 4.0 | 0.00 | 0.01 | 0.00 | 87 | 1010.9 |
| 20260510095135 | 48 | 212 | 2.0 | 4.0 | 0.00 | 0.01 | 0.00 | 87 | 1010.9 |
| 20260510094621 | 48 | 216 | 0.0 | 4.0 | 0.00 | 0.01 | 0.00 | 87 | 1010.8 |
| 20260510094157 | 49 | 217 | 0.0 | 2.0 | 0.00 | 0.01 | 0.00 | 87 | 1010.7 |
| 20260510093623 | 49 | 217 | 0.0 | 3.0 | 0.00 | 0.01 | 0.00 | 87 | 1010.7 |
| 20260510093116 | 49 | 217 | 1.0 | 3.0 | 0.00 | 0.01 | 0.00 | 87 | 1010.7 |
| 20260510092632 | 49 | 217 | 0.0 | 2.0 | 0.00 | 0.01 | 0.00 | 87 | 1010.7 |
| 20260510092138 | 50 | 217 | 0.0 | 4.0 | 0.00 | 0.01 | 0.00 | 87 | 1010.7 |
| 20260510091631 | 50 | 217 | 2.0 | 4.0 | 0.00 | 0.01 | 0.00 | 87 | 1010.7 |
| 20260510091119 | 50 | 218 | 0.0 | 4.0 | 0.00 | 0.01 | 0.00 | 87 | 1010.6 |
| 20260510090634 | 50 | 218 | 1.0 | 4.0 | 0.00 | 0.01 | 0.01 | 87 | 1010.5 |
| 20260510090120 | 51 | 220 | 2.0 | 5.0 | 0.00 | 0.01 | 0.01 | 87 | 1010.5 |
| 20260510085616 | 51 | 215 | 4.0 | 5.0 | 0.00 | 0.01 | 0.01 | 87 | 1010.4 |
| 20260510085131 | 51 | 219 | 2.0 | 5.0 | 0.00 | 0.01 | 0.01 | 87 | 1010.3 |
| 20260510084619 | 51 | 219 | 0.0 | 4.0 | 0.00 | 0.01 | 0.01 | 87 | 1010.2 |
| 20260510084133 | 52 | 221 | 2.0 | 4.0 | 0.00 | 0.01 | 0.01 | 87 | 1010.3 |
| 20260510083619 | 52 | 185 | 1.0 | 5.0 | 0.00 | 0.01 | 0.01 | 87 | 1010.3 |
| 20260510083134 | 52 | 206 | 4.0 | 5.0 | 0.00 | 0.01 | 0.01 | 87 | 1010.7 |
| 20260510082623 | 52 | 218 | 2.0 | 6.0 | 0.00 | 0.01 | 0.01 | 87 | 1010.8 |
| 20260510082118 | 52 | 222 | 1.0 | 6.0 | 0.00 | 0.01 | 0.01 | 87 | 1010.8 |
| 20260510081613 | 52 | 267 | 1.0 | 7.0 | 0.00 | 0.01 | 0.01 | 87 | 1010.7 |
| 20260510081125 | 52 | 264 | 0.0 | 1.0 | 0.00 | 0.01 | 0.01 | 87 | 1010.6 |
| 20260510080637 | 52 | 231 | 0.0 | 3.0 | 0.00 | 0.01 | 0.01 | 87 | 1010.5 |
| 20260510080129 | 52 | 231 | 0.0 | 5.0 | 0.00 | 0.01 | 0.01 | 87 | 1010.5 |
| 20260510075624 | 52 | 230 | 3.0 | 5.0 | 0.00 | 0.01 | 0.01 | 87 | 1010.6 |
| 20260510075118 | 52 | 221 | 0.0 | 5.0 | 0.00 | 0.01 | 0.01 | 87 | 1010.4 |
| 20260510074632 | 52 | 188 | 2.0 | 4.0 | 0.00 | 0.01 | 0.01 | 87 | 1010.5 |
| 20260510074123 | 52 | 191 | 0.0 | 2.0 | 0.00 | 0.01 | 0.01 | 87 | 1010.6 |
| 20260510073616 | 52 | 192 | 0.0 | 0.0 | 0.00 | 0.01 | 0.01 | 87 | 1010.8 |
| 20260510073131 | 53 | 191 | 0.0 | 5.0 | 0.00 | 0.01 | 0.01 | 87 | 1010.8 |
| 20260510072638 | 53 | 191 | 1.0 | 5.0 | 0.00 | 0.01 | 0.01 | 87 | 1010.9 |
| 20260510072144 | 53 | 191 | 0.0 | 1.0 | 0.00 | 0.01 | 0.01 | 87 | 1011.0 |
| 20260510071617 | 52 | 210 | 0.0 | 10.0 | 0.00 | 0.01 | 0.01 | 87 | 1011.1 |
| 20260510071152 | 52 | 210 | 2.0 | 13.0 | 0.00 | 0.01 | 0.01 | 87 | 1010.8 |
| 20260510070618 | 52 | 331 | 8.0 | 13.0 | 0.00 | 0.01 | 0.01 | 87 | 1011.3 |
| 20260510070133 | 51 | 301 | 2.0 | 5.0 | 0.00 | 0.01 | 0.01 | 87 | 1010.7 |
| 20260510065619 | 51 | 214 | 0.0 | 0.0 | 0.00 | 0.01 | 0.01 | 87 | 1009.9 |
| 20260510065134 | 51 | 214 | 0.0 | 0.0 | 0.00 | 0.01 | 0.01 | 87 | 1009.6 |
| 20260510064621 | 51 | 214 | 0.0 | 0.0 | 0.00 | 0.01 | 0.01 | 87 | 1009.8 |
| 20260510064118 | 52 | 214 | 0.0 | 0.0 | 0.00 | 0.01 | 0.01 | 87 | 1009.8 |
| 20260510063633 | 52 | 214 | 0.0 | 0.0 | 0.00 | 0.01 | 0.01 | 87 | 1010.0 |
| 20260510063122 | 52 | 214 | 0.0 | 0.0 | 0.00 | 0.01 | 0.01 | 87 | 1010.1 |
| 20260510062638 | 52 | 214 | 0.0 | 0.0 | 0.00 | 0.01 | 0.01 | 87 | 1010.1 |
| 20260510062125 | 52 | 201 | 0.0 | 0.0 | 0.00 | 0.01 | 0.01 | 87 | 1010.2 |
| 20260510061657 | 52 | 203 | 0.0 | 0.0 | 0.00 | 0.01 | 0.01 | 87 | 1010.3 |
| 20260510061122 | 52 | 205 | 0.0 | 4.0 | 0.00 | 0.01 | 0.01 | 87 | 1010.4 |
| 20260510060636 | 52 | 205 | 1.0 | 4.0 | 0.00 | 0.01 | 0.01 | 86 | 1010.3 |
| 20260510060131 | 52 | 206 | 1.0 | 4.0 | 0.00 | 0.01 | 0.01 | 86 | 1010.4 |
| 20260510055620 | 53 | 217 | 0.0 | 0.0 | 0.00 | 0.01 | 0.01 | 86 | 1010.4 |
| 20260510055155 | 53 | 216 | 0.0 | 0.0 | 0.00 | 0.01 | 0.01 | 86 | 1010.4 |
| 20260510054620 | 53 | 212 | 0.0 | 0.0 | 0.00 | 0.01 | 0.01 | 86 | 1010.4 |
| 20260510054135 | 53 | 212 | 0.0 | 4.0 | 0.00 | 0.01 | 0.01 | 86 | 1010.4 |
| 20260510053622 | 54 | 212 | 1.0 | 4.0 | 0.00 | 0.01 | 0.01 | 86 | 1010.6 |
| 20260510053137 | 54 | 225 | 2.0 | 4.0 | 0.00 | 0.01 | 0.01 | 85 | 1010.7 |
| 20260510052633 | 54 | 154 | 0.0 | 1.0 | 0.00 | 0.01 | 0.01 | 85 | 1010.7 |
| 20260510052121 | 54 | 153 | 0.0 | 3.0 | 0.00 | 0.01 | 0.01 | 85 | 1010.8 |
| 20260510051635 | 54 | 141 | 1.0 | 3.0 | 0.00 | 0.01 | 0.01 | 84 | 1010.9 |
| 20260510051143 | 55 | 89 | 0.0 | 5.0 | 0.00 | 0.01 | 0.01 | 84 | 1010.9 |
| 20260510050636 | 55 | 79 | 3.0 | 6.0 | 0.00 | 0.01 | 0.01 | 83 | 1010.9 |
| 20260510050122 | 55 | 74 | 2.0 | 4.0 | 0.00 | 0.01 | 0.01 | 83 | 1011.0 |
| 20260510045638 | 55 | 95 | 1.0 | 3.0 | 0.00 | 0.01 | 0.01 | 82 | 1011.2 |
| 20260510045127 | 55 | 99 | 0.0 | 6.0 | 0.00 | 0.01 | 0.01 | 82 | 1011.2 |
| 20260510044622 | 56 | 353 | 2.0 | 6.0 | 0.00 | 0.01 | 0.01 | 82 | 1011.2 |
| 20260510044118 | 56 | 290 | 0.0 | 15.0 | 0.00 | 0.01 | 0.01 | 82 | 1011.2 |
| 20260510043623 | 56 | 337 | 7.0 | 15.0 | 0.00 | 0.01 | 0.01 | 81 | 1011.3 |
| 20260510043117 | 56 | 299 | 9.0 | 22.0 | 0.00 | 0.01 | 0.01 | 82 | 1011.3 |
| 20260510042633 | 55 | 305 | 11.0 | 22.0 | 0.00 | 0.01 | 0.01 | 85 | 1011.4 |
| 20260510042120 | 53 | 322 | 11.0 | 23.0 | 0.00 | 0.01 | 0.01 | 87 | 1011.3 |
| 20260510041635 | 49 | 298 | 12.0 | 18.0 | 0.00 | 0.01 | 0.01 | 87 | 1011.6 |
| 20260510041124 | 47 | 67 | 0.0 | 6.0 | 0.00 | 0.01 | 0.01 | 87 | 1011.1 |
| 20260510040637 | 47 | 66 | 2.0 | 6.0 | 0.00 | 0.01 | 0.01 | 87 | 1010.8 |
| 20260510040143 | 47 | 245 | 0.0 | 3.0 | 0.00 | 0.01 | 0.01 | 87 | 1010.6 |
| 20260510035623 | 47 | 174 | 0.0 | 5.0 | 0.00 | 0.01 | 0.01 | 87 | 1010.3 |
| 20260510035136 | 47 | 174 | 2.0 | 5.0 | 0.00 | 0.01 | 0.01 | 87 | 1010.3 |
| 20260510034624 | 47 | 221 | 0.0 | 0.0 | 0.00 | 0.01 | 0.01 | 87 | 1010.3 |
| 20260510034121 | 48 | 221 | 0.0 | 0.0 | 0.00 | 0.01 | 0.01 | 87 | 1009.9 |
| 20260510033635 | 48 | 221 | 0.0 | 0.0 | 0.00 | 0.01 | 0.01 | 87 | 1009.7 |
| 20260510033121 | 48 | 221 | 0.0 | 0.0 | 0.00 | 0.01 | 0.01 | 87 | 1009.7 |
| 20260510032638 | 47 | 221 | 0.0 | 2.0 | 0.00 | 0.01 | 0.01 | 87 | 1009.6 |
| 20260510032123 | 47 | 221 | 1.0 | 3.0 | 0.00 | 0.01 | 0.01 | 87 | 1009.6 |
| 20260510031618 | 46 | 221 | 3.0 | 3.0 | 0.00 | 0.01 | 0.01 | 87 | 1009.6 |
| 20260510031134 | 47 | 221 | 1.0 | 3.0 | 0.00 | 0.01 | 0.01 | 87 | 1009.5 |
| 20260510030621 | 47 | 222 | 0.0 | 2.0 | 0.00 | 0.01 | 0.01 | 87 | 1009.5 |
| 20260510030156 | 47 | 222 | 0.0 | 0.0 | 0.00 | 0.01 | 0.01 | 87 | 1009.4 |
| 20260510025644 | 47 | 222 | 0.0 | 4.0 | 0.00 | 0.01 | 0.01 | 87 | 1009.4 |
| 20260510025153 | 47 | 222 | 2.0 | 4.0 | 0.00 | 0.01 | 0.01 | 87 | 1009.2 |
| 20260510024625 | 47 | 220 | 3.0 | 5.0 | 0.00 | 0.01 | 0.01 | 87 | 1009.2 |
| 20260510024141 | 47 | 220 | 3.0 | 5.0 | 0.00 | 0.01 | 0.01 | 87 | 1009.3 |
| 20260510023627 | 47 | 222 | 2.0 | 3.0 | 0.00 | 0.01 | 0.01 | 86 | 1009.2 |
| 20260510023122 | 47 | 222 | 1.0 | 2.0 | 0.00 | 0.01 | 0.01 | 86 | 1009.2 |
| 20260510022638 | 48 | 222 | 0.0 | 0.0 | 0.00 | 0.01 | 0.01 | 86 | 1009.2 |
| 20260510022126 | 48 | 222 | 0.0 | 2.0 | 0.00 | 0.01 | 0.01 | 86 | 1009.2 |
| 20260510021640 | 49 | 222 | 0.0 | 3.0 | 0.00 | 0.01 | 0.01 | 86 | 1009.2 |
| 20260510021127 | 49 | 222 | 2.0 | 3.0 | 0.00 | 0.01 | 0.01 | 86 | 1009.2 |
| 20260510020620 | 49 | 222 | 2.0 | 3.0 | 0.00 | 0.01 | 0.01 | 86 | 1009.2 |
| 20260510020135 | 49 | 222 | 0.0 | 4.0 | 0.00 | 0.01 | 0.01 | 86 | 1009.2 |
| 20260510015624 | 49 | 222 | 3.0 | 5.0 | 0.00 | 0.01 | 0.01 | 86 | 1009.2 |
| 20260510015137 | 49 | 224 | 2.0 | 5.0 | 0.00 | 0.01 | 0.01 | 86 | 1009.2 |
| 20260510014625 | 50 | 223 | 2.0 | 4.0 | 0.00 | 0.01 | 0.01 | 85 | 1009.2 |
| 20260510014201 | 50 | 224 | 2.0 | 6.0 | 0.00 | 0.01 | 0.01 | 85 | 1009.1 |
| 20260510013645 | 50 | 224 | 4.0 | 6.0 | 0.00 | 0.01 | 0.01 | 85 | 1009.1 |
| 20260510013118 | 51 | 222 | 2.0 | 4.0 | 0.00 | 0.01 | 0.01 | 84 | 1009.0 |
| 20260510012635 | 51 | 227 | 0.0 | 2.0 | 0.00 | 0.01 | 0.01 | 83 | 1008.9 |
| 20260510012121 | 52 | 227 | 0.0 | 4.0 | 0.00 | 0.01 | 0.01 | 83 | 1008.8 |
| 20260510011636 | 52 | 221 | 1.0 | 4.0 | 0.00 | 0.01 | 0.01 | 82 | 1008.8 |
| 20260510011123 | 53 | 214 | 0.0 | 0.0 | 0.00 | 0.01 | 0.01 | 82 | 1008.6 |
| 20260510010637 | 53 | 214 | 0.0 | 0.0 | 0.00 | 0.01 | 0.01 | 81 | 1008.5 |
| 20260510010123 | 53 | 212 | 0.0 | 0.0 | 0.00 | 0.01 | 0.01 | 80 | 1008.5 |
| 20260510005618 | 54 | 204 | 0.0 | 0.0 | 0.00 | 0.01 | 0.01 | 80 | 1008.4 |
| 20260510005147 | 54 | 204 | 0.0 | 0.0 | 0.00 | 0.01 | 0.01 | 78 | 1008.3 |
| 20260510004640 | 55 | 204 | 0.0 | 0.0 | 0.00 | 0.01 | 0.01 | 77 | 1008.2 |
| 20260510004128 | 56 | 204 | 0.0 | 0.0 | 0.00 | 0.01 | 0.01 | 76 | 1008.1 |
| 20260510003622 | 57 | 205 | 0.0 | 0.0 | 0.00 | 0.01 | 0.01 | 75 | 1008.2 |
| 20260510003136 | 57 | 205 | 0.0 | 0.0 | 0.00 | 0.01 | 0.01 | 72 | 1008.1 |
| 20260510002623 | 58 | 205 | 0.0 | 0.0 | 0.00 | 0.01 | 0.01 | 70 | 1008.0 |
| 20260510002136 | 60 | 204 | 0.0 | 3.0 | 0.00 | 0.01 | 0.01 | 67 | 1007.9 |
| 20260510001624 | 60 | 204 | 0.0 | 3.0 | 0.00 | 0.01 | 0.01 | 67 | 1007.9 |
| 20260510001119 | 61 | 205 | 0.0 | 7.0 | 0.00 | 0.01 | 0.01 | 66 | 1007.7 |
| 20260510000634 | 62 | 206 | 3.0 | 7.0 | 0.00 | 0.01 | 0.01 | 64 | 1007.8 |
| 20260510000120 | 63 | 212 | 0.0 | 4.0 | 0.00 | 0.01 | 0.01 | 63 | 1007.7 |
| 20260509235657 | 64 | 212 | 1.0 | 4.0 | 0.00 | 0.01 | 0.01 | 61 | 1007.7 |
| 20260509235121 | 65 | 224 | 0.0 | 2.0 | 0.00 | 0.01 | 0.01 | 59 | 1007.6 |
| 20260509234635 | 66 | 224 | 0.0 | 4.0 | 0.00 | 0.01 | 0.01 | 58 | 1007.5 |